| time (UTC) | temp C | wind direction | speed KPH | gust KPH | rain 1hr cm | rain 24hr cm | rain mn cm | humidity % | barometer mb |
| 20260506033039 | 2 | 29 | 8.0 | 12.9 | 0.00 | 0.46 | 0.46 | 88 | 1012.4 |
| 20260506031538 | 2 | 40 | 8.0 | 12.9 | 0.00 | 0.46 | 0.46 | 88 | 1011.9 |
| 20260506030054 | 2 | 32 | 9.7 | 19.3 | 0.00 | 0.46 | 0.46 | 88 | 1011.4 |
| 20260506024539 | 2 | 30 | 11.3 | 16.1 | 0.00 | 0.46 | 0.46 | 88 | 1010.9 |
| 20260506023032 | 2 | 42 | 12.9 | 19.3 | 0.00 | 0.46 | 0.46 | 87 | 1010.3 |
| 20260506021531 | 2 | 38 | 12.9 | 16.1 | 0.00 | 0.46 | 0.46 | 87 | 1010.7 |
| 20260506020027 | 2 | 44 | 9.7 | 17.7 | 0.00 | 0.46 | 0.46 | 87 | 1010.0 |
| 20260506014523 | 2 | 40 | 9.7 | 22.5 | 0.00 | 0.46 | 0.46 | 87 | 1009.5 |
| 20260506013020 | 2 | 45 | 11.3 | 17.7 | 0.03 | 0.46 | 0.46 | 87 | 1008.9 |
| 20260506011528 | 3 | 21 | 9.7 | 17.7 | 0.05 | 0.46 | 0.46 | 86 | 1009.1 |
| 20260506010013 | 3 | 1 | 9.7 | 19.3 | 0.18 | 0.46 | 0.46 | 85 | 1008.3 |
| 20260506004524 | 3 | 92 | 17.7 | 29.0 | 0.36 | 0.46 | 0.46 | 84 | 1006.9 |
| 20260506003009 | 3 | 63 | 14.5 | 19.3 | 0.41 | 0.43 | 0.43 | 84 | 1007.6 |
| 20260506001509 | 3 | 82 | 9.7 | 19.3 | 0.41 | 0.41 | 0.41 | 83 | 1007.8 |
| 20260506000006 | 4 | 51 | 1.6 | 14.5 | 0.25 | 0.25 | 0.25 | 84 | 1007.3 |
| 20260505234602 | 4 | 83 | 11.3 | 17.7 | 0.10 | 0.10 | 0.10 | 81 | 1007.1 |
| 20260505233120 | 5 | 86 | 6.4 | 12.9 | 0.03 | 0.03 | 0.03 | 79 | 1007.3 |
| 20260505231554 | 5 | 84 | 11.3 | 20.9 | 0.00 | 0.00 | 0.00 | 76 | 1007.1 |
| 20260505230052 | 6 | 72 | 14.5 | 22.5 | 0.00 | 0.00 | 0.00 | 72 | 1006.7 |
| 20260505224550 | 6 | 91 | 12.9 | 17.7 | 0.00 | 0.00 | 0.00 | 70 | 1006.6 |
| 20260505223051 | 6 | 65 | 12.9 | 17.7 | 0.00 | 0.00 | 0.00 | 69 | 1006.7 |
| 20260505221548 | 6 | 97 | 11.3 | 27.4 | 0.00 | 0.00 | 0.00 | 69 | 1006.7 |
| 20260505220047 | 6 | 71 | 11.3 | 20.9 | 0.00 | 0.00 | 0.00 | 69 | 1006.6 |
| 20260505214547 | 6 | 90 | 12.9 | 24.1 | 0.00 | 0.00 | 0.00 | 69 | 1006.9 |
| 20260505213048 | 6 | 72 | 9.7 | 20.9 | 0.00 | 0.00 | 0.00 | 70 | 1006.8 |
| 20260505211546 | 6 | 54 | 9.7 | 17.7 | 0.00 | 0.00 | 0.00 | 70 | 1006.6 |
| 20260505210045 | 6 | 75 | 11.3 | 22.5 | 0.00 | 0.00 | 0.00 | 70 | 1006.5 |
| 20260505204544 | 6 | 86 | 8.0 | 24.1 | 0.00 | 0.00 | 0.00 | 69 | 1006.7 |
| 20260505203049 | 6 | 47 | 14.5 | 25.7 | 0.00 | 0.00 | 0.00 | 68 | 1006.5 |
| 20260505201546 | 6 | 78 | 17.7 | 25.7 | 0.00 | 0.00 | 0.00 | 68 | 1006.3 |
| 20260505200042 | 6 | 77 | 16.1 | 29.0 | 0.00 | 0.00 | 0.00 | 69 | 1006.3 |
| 20260505194548 | 7 | 53 | 17.7 | 25.7 | 0.00 | 0.00 | 0.00 | 69 | 1006.3 |
| 20260505193101 | 6 | 84 | 17.7 | 29.0 | 0.00 | 0.00 | 0.00 | 70 | 1006.6 |
| 20260505191542 | 6 | 68 | 17.7 | 29.0 | 0.00 | 0.00 | 0.00 | 71 | 1006.5 |
| 20260505190043 | 6 | 53 | 14.5 | 29.0 | 0.00 | 0.00 | 0.00 | 72 | 1006.6 |
| 20260505184540 | 6 | 60 | 16.1 | 27.4 | 0.00 | 0.00 | 0.00 | 72 | 1006.6 |
| 20260505183040 | 6 | 65 | 14.5 | 24.1 | 0.00 | 0.00 | 0.00 | 72 | 1006.6 |
| 20260505181540 | 7 | 86 | 17.7 | 24.1 | 0.00 | 0.00 | 0.00 | 71 | 1006.7 |
| 20260505180043 | 7 | 32 | 12.9 | 29.0 | 0.00 | 0.00 | 0.00 | 71 | 1006.7 |
| 20260505174539 | 6 | 101 | 9.7 | 29.0 | 0.00 | 0.00 | 0.00 | 69 | 1007.0 |
| 20260505173037 | 6 | 84 | 20.9 | 29.0 | 0.00 | 0.00 | 0.00 | 72 | 1006.8 |
| 20260505171541 | 6 | 60 | 12.9 | 24.1 | 0.00 | 0.00 | 0.00 | 75 | 1006.6 |
| 20260505170038 | 6 | 53 | 16.1 | 24.1 | 0.00 | 0.00 | 0.00 | 76 | 1006.7 |
| 20260505164539 | 6 | 45 | 19.3 | 29.0 | 0.00 | 0.00 | 0.00 | 76 | 1006.7 |
| 20260505163040 | 6 | 86 | 12.9 | 25.7 | 0.00 | 0.00 | 0.00 | 75 | 1006.6 |
| 20260505161530 | 6 | 58 | 17.7 | 30.6 | 0.00 | 0.00 | 0.00 | 75 | 1006.4 |
| 20260505153034 | 6 | 55 | 19.3 | 30.6 | 0.00 | 0.00 | 0.00 | 74 | 1006.1 |
| 20260505151527 | 6 | 67 | 20.9 | 35.4 | 0.00 | 0.00 | 0.00 | 74 | 1006.2 |
| 20260505130111 | 8 | 65 | 9.7 | 17.7 | 0.00 | 0.00 | 0.00 | 71 | 1004.7 |
| 20260505124605 | 8 | 34 | 11.3 | 20.9 | 0.00 | 0.00 | 0.00 | 71 | 1004.5 |
| 20260505123113 | 8 | 61 | 12.9 | 22.5 | 0.00 | 0.00 | 0.00 | 70 | 1004.3 |
| 20260505121554 | 8 | 46 | 9.7 | 17.7 | 0.00 | 0.00 | 0.00 | 71 | 1004.0 |
| 20260505120056 | 8 | 59 | 8.0 | 16.1 | 0.00 | 0.00 | 0.00 | 70 | 1003.8 |
| 20260505114551 | 8 | 53 | 6.4 | 14.5 | 0.00 | 0.00 | 0.00 | 69 | 1003.6 |
| 20260505113051 | 8 | 57 | 6.4 | 14.5 | 0.00 | 0.00 | 0.00 | 68 | 1003.6 |
| 20260505111544 | 8 | 49 | 6.4 | 11.3 | 0.00 | 0.00 | 0.00 | 66 | 1003.1 |
| 20260505101536 | 9 | 38 | 6.4 | 11.3 | 0.00 | 0.00 | 0.00 | 66 | 1003.4 |
| 20260505100033 | 9 | 45 | 4.8 | 9.7 | 0.00 | 0.00 | 0.00 | 65 | 1003.4 |
| 20260505094531 | 10 | 45 | 4.8 | 9.7 | 0.00 | 0.00 | 0.00 | 64 | 1003.2 |
| 20260505093030 | 10 | 37 | 3.2 | 8.0 | 0.00 | 0.00 | 0.00 | 64 | 1003.6 |
| 20260505091530 | 10 | 37 | 3.2 | 6.4 | 0.00 | 0.00 | 0.00 | 64 | 1003.4 |
| 20260505090025 | 10 | 9 | 3.2 | 8.0 | 0.00 | 0.00 | 0.00 | 64 | 1003.3 |
| 20260505084535 | 10 | 1 | 0.0 | 9.7 | 0.00 | 0.00 | 0.00 | 63 | 1003.3 |
| 20260505083039 | 11 | 15 | 3.2 | 8.0 | 0.00 | 0.00 | 0.00 | 62 | 1003.4 |
| 20260505081523 | 11 | 27 | 4.8 | 8.0 | 0.00 | 0.00 | 0.00 | 62 | 1003.4 |
| 20260505080033 | 11 | 11 | 3.2 | 16.1 | 0.00 | 0.00 | 0.00 | 61 | 1003.5 |
| 20260505074518 | 11 | 356 | 0.0 | 0.0 | 0.00 | 0.00 | 0.00 | 59 | 1003.3 |
| 20260505073024 | 11 | 32 | 0.0 | 6.4 | 0.00 | 0.00 | 0.00 | 58 | 1003.4 |
| 20260505071510 | 12 | 22 | 6.4 | 14.5 | 0.00 | 0.00 | 0.00 | 57 | 1002.9 |
| 20260505070008 | 12 | 20 | 8.0 | 19.3 | 0.00 | 0.00 | 0.00 | 56 | 1002.8 |
| 20260505064506 | 12 | 29 | 14.5 | 24.1 | 0.00 | 0.00 | 0.00 | 55 | 1002.1 |
| 20260505063004 | 12 | 338 | 14.5 | 20.9 | 0.00 | 0.00 | 0.00 | 54 | 1002.7 |
| 20260505061501 | 12 | 356 | 17.7 | 25.7 | 0.00 | 0.00 | 0.00 | 54 | 1002.3 |
| 20260505060103 | 12 | 1 | 17.7 | 29.0 | 0.00 | 0.00 | 0.00 | 54 | 1002.5 |
| 20260505054601 | 12 | 11 | 16.1 | 27.4 | 0.00 | 0.00 | 0.00 | 55 | 1002.6 |
| 20260505053100 | 13 | 9 | 8.0 | 22.5 | 0.00 | 0.00 | 0.00 | 55 | 1002.2 |
| 20260505051557 | 13 | 24 | 6.4 | 14.5 | 0.00 | 0.00 | 0.00 | 56 | 1002.2 |
| 20260505041602 | 13 | 12 | 14.5 | 25.7 | 0.00 | 0.00 | 0.00 | 53 | 1002.0 |
| 20260505040057 | 13 | 13 | 17.7 | 40.2 | 0.00 | 0.00 | 0.00 | 53 | 1001.8 |
| 20260505034554 | 14 | 12 | 19.3 | 33.8 | 0.00 | 0.00 | 0.00 | 48 | 1001.6 |